Weather History for Fort Leonard Wood, MO

Change the Weather History Date:

Friday, September 7, 2012

  Actual Average Record
Temperature  
Mean Temperature 78 °F -  
Max Temperature 93 °F 81 °F 98 °F (1998)
Min Temperature 62 °F 62 °F 42 °F (2011)
Cooling Degree Days 12    
Growing Degree Days 28 (Base 50)    
Moisture  
Dew Point 67 °F    
Average Humidity 90    
Maximum Humidity 100    
Minimum Humidity 44    
Precipitation  
Precipitation 0.79 in - - ()
Sea Level Pressure  
Sea Level Pressure 29.83 in    
Wind  
Wind Speed 10 mph (NNW)    
Max Wind Speed 36 mph    
Max Gust Speed 44 mph    
Visibility 9 miles    
Events Fog , Rain , Thunderstorm    
Averages and records for this station are not official NWS values.
T = Trace of Precipitation, MM = Missing Value Source: NWS Daily Summary

Daily Weather History Graph

Daily Weather History Graph

Search for Another Location

Airport:

Trip Planner

Search our weather history database for the weather conditions in past years. The results will help you decide how hot, cold, wet, or windy it might be!

Date:

Astronomy

Sep. 07, 2012 Rise Set
Actual Time 6:44 AM CDT 7:27 PM CDT
Civil Twilight 6:17 AM CDT 7:54 PM CDT
Nautical Twilight 5:46 AM CDT 8:25 PM CDT
Astronomical Twilight 5:13 AM CDT 8:57 PM CDT
Moon 11:31 PM CDT (9/7) 1:28 PM CDT (9/7)
Length of Visible Light 13h 36m
Length of Day
12h 43m
Waning Gibbous, 58% of the Moon is Illuminated
Sep 7
Waning Gibbous
Sep 8
Last Quarter
Sep 15
New
Sep 22
First Quarter
Sep 29
Full

Hourly Weather History & Observations

Time (CDT) Temp. Heat Index Dew Point Humidity Pressure Visibility Wind Dir Wind Speed Gust Speed Precip Events Conditions
12:55 AM 70.9 °F - 61.7 °F 73% 29.87 in 10.0 mi SSE 10.4 mph - N/A   Partly Cloudy
1:55 AM 69.3 °F - 63.3 °F 81% 29.85 in 10.0 mi South 6.9 mph - N/A   Clear
2:55 AM 67.3 °F - 64.2 °F 90% 29.86 in 10.0 mi SSE 8.1 mph - N/A   Clear
3:55 AM 66.9 °F - 65.3 °F 95% 29.85 in 10.0 mi South 4.6 mph - N/A   Clear
4:55 AM 66.6 °F - 65.8 °F 98% 29.83 in 10.0 mi South 4.6 mph - N/A   Clear
5:55 AM 66.4 °F - 65.8 °F 98% 29.82 in 10.0 mi South 4.6 mph - N/A   Clear
6:55 AM 67.1 °F - 66.0 °F 96% 29.83 in 10.0 mi South 5.8 mph - N/A   Clear
7:55 AM 71.8 °F - 66.7 °F 84% 29.83 in 10.0 mi Variable 4.6 mph - N/A   Overcast
8:55 AM 75.4 °F - 67.8 °F 77% 29.83 in 10.0 mi Variable 5.8 mph - N/A   Overcast
9:55 AM 80.4 °F 83.8 °F 70.2 °F 71% 29.83 in 10.0 mi SW 4.6 mph - N/A   Mostly Cloudy
10:55 AM 85.8 °F 91.5 °F 71.4 °F 62% 29.82 in 10.0 mi Variable 5.8 mph - N/A   Clear
11:53 AM 89.6 °F 96.2 °F 71.6 °F 55% 29.80 in 10.0 mi Variable 5.8 mph - N/A   Light Drizzle
11:55 AM 89.8 °F 96.5 °F 71.6 °F 55% 29.79 in 10.0 mi WSW 8.1 mph - 0.00 in   Light Drizzle
12:03 PM 89.6 °F 96.2 °F 71.6 °F 55% 29.79 in 10.0 mi Variable 5.8 mph - N/A   Clear
12:55 PM 92.1 °F 97.7 °F 69.8 °F 48% 29.76 in 10.0 mi Variable 6.9 mph - 0.00 in   Clear
1:55 PM 91.4 °F 96.3 °F 69.4 °F 48% 29.74 in 10.0 mi Variable 4.6 mph - N/A   Partly Cloudy
2:55 PM 93.9 °F 99.1 °F 69.3 °F 44% 29.72 in 10.0 mi Variable 6.9 mph - N/A   Clear
3:55 PM 92.3 °F 96.5 °F 68.4 °F 45% 29.66 in 10.0 mi West 4.6 mph - N/A   Partly Cloudy
4:55 PM 89.2 °F 95.9 °F 71.6 °F 56% 29.63 in 10.0 mi SW 3.5 mph - N/A   Partly Cloudy
5:28 PM 86.0 °F 90.4 °F 69.8 °F 58% 29.73 in 10.0 mi NNW 18.4 mph 24.2 mph N/A Rain , Thunderstorm Light Thunderstorms and Rain
5:48 PM 75.2 °F - 71.6 °F 89% 29.76 in 1.0 mi West 26.5 mph 39.1 mph N/A Rain , Thunderstorm Heavy Thunderstorms and Rain
5:55 PM 71.6 °F - 69.8 °F 94% 29.79 in 0.5 mi WNW 24.2 mph 39.1 mph 0.22 in Fog , Rain , Thunderstorm Heavy Thunderstorms and Rain
6:05 PM 69.8 °F - 69.8 °F 100% 29.77 in 1.0 mi NNW 35.7 mph 41.4 mph N/A Fog , Rain , Thunderstorm Heavy Thunderstorms and Rain
6:06 PM 69.8 °F - 69.8 °F 100% 29.76 in 2.0 mi NNW 34.5 mph 42.6 mph N/A Fog , Rain , Thunderstorm Thunderstorms and Rain
6:12 PM 69.8 °F - 69.8 °F 100% 29.76 in 2.0 mi NNW 32.2 mph 43.7 mph N/A Rain , Thunderstorm Thunderstorms and Rain
6:21 PM 69.8 °F - 69.8 °F 100% 29.79 in 7.0 mi NNW 24.2 mph 42.6 mph N/A Rain , Thunderstorm Light Thunderstorms and Rain
6:40 PM 69.8 °F - 69.8 °F 100% 29.83 in 10.0 mi NNW 17.3 mph 27.6 mph N/A Rain , Thunderstorm Light Rain
6:55 PM 68.7 °F - 68.5 °F 99% 29.83 in 10.0 mi NNW 19.6 mph 26.5 mph 0.46 in Rain Light Rain
7:03 PM 68.0 °F - 68.0 °F 100% 29.83 in 10.0 mi NNW 12.7 mph 26.5 mph N/A Rain Rain
7:09 PM 68.0 °F - 68.0 °F 100% 29.85 in 9.0 mi NNW 12.7 mph 21.9 mph N/A Rain Rain
7:11 PM 68.0 °F - 68.0 °F 100% 29.85 in 9.0 mi NW 12.7 mph 21.9 mph N/A Rain Rain
7:23 PM 68.0 °F - 68.0 °F 100% 29.80 in 4.0 mi Variable 6.9 mph - N/A Rain Heavy Rain
7:27 PM 68.0 °F - 68.0 °F 100% 29.79 in 4.0 mi NNE 10.4 mph - N/A Rain Light Rain
7:29 PM 68.0 °F - 68.0 °F 100% 29.79 in 5.0 mi NE 10.4 mph - N/A Rain Light Rain
7:55 PM 66.6 °F - 66.0 °F 98% 29.82 in 10.0 mi NNW 11.5 mph - 0.11 in Rain Light Rain
8:11 PM 66.2 °F - 66.2 °F 100% 29.82 in 10.0 mi North 6.9 mph - N/A   Scattered Clouds
8:55 PM 65.8 °F - 65.8 °F 100% 29.83 in 10.0 mi NNW 9.2 mph - 0.00 in   Mostly Cloudy
9:00 PM 66.2 °F - 66.2 °F 100% 29.83 in 10.0 mi NNW 10.4 mph - N/A   Mostly Cloudy
9:02 PM 66.2 °F - 66.2 °F 100% 29.83 in 10.0 mi NNW 12.7 mph - N/A   Mostly Cloudy
9:04 PM 66.2 °F - 66.2 °F 100% 29.83 in 10.0 mi NNW 10.4 mph - N/A   Mostly Cloudy
9:12 PM 66.2 °F - 66.2 °F 100% 29.84 in 10.0 mi NNW 10.4 mph - N/A   Overcast
9:21 PM 66.2 °F - 66.2 °F 100% 29.85 in 10.0 mi NNW 11.5 mph - N/A   Overcast
9:27 PM 66.2 °F - 66.2 °F 100% 29.85 in 10.0 mi NNW 11.5 mph - N/A   Overcast
9:33 PM 66.2 °F - 66.2 °F 100% 29.86 in 10.0 mi NNW 9.2 mph - N/A   Overcast
9:35 PM 66.2 °F - 66.2 °F 100% 29.86 in 10.0 mi North 10.4 mph - N/A   Overcast
9:39 PM 66.2 °F - 66.2 °F 100% 29.86 in 10.0 mi NNW 9.2 mph - N/A   Overcast
9:55 PM 66.2 °F - 66.2 °F 100% 29.86 in 10.0 mi North 9.2 mph - N/A   Overcast
10:00 PM 66.2 °F - 66.2 °F 100% 29.87 in 10.0 mi NNW 8.1 mph - N/A   Overcast
10:02 PM 66.2 °F - 66.2 °F 100% 29.87 in 10.0 mi NNW 8.1 mph - N/A   Overcast
10:05 PM 66.2 °F - 66.2 °F 100% 29.87 in 10.0 mi NNW 9.2 mph - N/A Rain Light Rain
10:18 PM 66.2 °F - 66.2 °F 100% 29.88 in 10.0 mi NNW 12.7 mph - N/A   Overcast
10:26 PM 66.2 °F - 66.2 °F 100% 29.88 in 10.0 mi NNW 9.2 mph - N/A   Overcast
10:28 PM 66.2 °F - 66.2 °F 100% 29.88 in 10.0 mi NNW 9.2 mph - N/A   Overcast
10:33 PM 66.2 °F - 66.2 °F 100% 29.88 in 10.0 mi NNW 10.4 mph - N/A   Overcast
10:35 PM 66.2 °F - 66.2 °F 100% 29.88 in 10.0 mi NNW 11.5 mph 17.3 mph N/A   Overcast
10:38 PM 66.2 °F - 66.2 °F 100% 29.88 in 10.0 mi NNW 10.4 mph 17.3 mph N/A   Overcast
10:39 PM 66.2 °F - 66.2 °F 100% 29.88 in 10.0 mi NNW 11.5 mph 17.3 mph N/A   Overcast
10:44 PM 66.2 °F - 66.2 °F 100% 29.88 in 10.0 mi NNW 13.8 mph 23.0 mph N/A   Overcast
10:55 PM 65.7 °F - 64.9 °F 98% 29.89 in 10.0 mi NNW 15.0 mph 23.0 mph 0.00 in   Overcast
11:11 PM 64.4 °F - 64.4 °F 100% 29.90 in 10.0 mi NNW 10.4 mph - N/A   Light Drizzle
11:21 PM 64.4 °F - 64.4 °F 100% 29.90 in 10.0 mi NNW 10.4 mph - N/A   Overcast
11:33 PM 64.4 °F - 64.4 °F 100% 29.91 in 10.0 mi NNW 15.0 mph - N/A   Overcast
11:36 PM 64.4 °F - 64.4 °F 100% 29.91 in 10.0 mi NNW 15.0 mph - N/A   Overcast
11:48 PM 64.4 °F - 62.6 °F 94% 29.92 in 10.0 mi NNW 16.1 mph - N/A   Light Drizzle
11:52 PM 62.6 °F - 62.6 °F 100% 29.92 in 10.0 mi NNW 15.0 mph - N/A   Overcast
11:55 PM 63.3 °F - 62.1 °F 96% 29.92 in 10.0 mi NNW 13.8 mph - 0.00 in   Overcast